Terug naar catalogus

OPS 4412

TRANSIT 9

ActiefNavigatiePO
NORAD 801·PAYLOAD·🇺🇸 United States

Gelanceerd Jun 4, 1964 vanaf Vandenberg Space Force Base

Loading…

Volgende Passages (komende 24 uur)

TLE

VersSource: Space-Track

Epoch: Sep 14, 2026, 06:25 UTC

1 00801U 64026A   26257.26800014  .00000335  00000-0  15933-3 0  9995
2 00801  90.4616 192.5903 0049551  94.8669 265.8180 14.17135686198765

Volg OPS 4412 in realtime met AllMySat

Download on the App Store